Tracking 34305 objects as of 6-Jun-2026
HD Live streaming from Space Station
objects crossing your sky now

GLOBALSTAR M031

Track GLOBALSTAR M031 now!
10-day predictions
GLOBALSTAR M031 is classified as:


NORAD ID: 25946
Int'l Code: 1999-058D
Perigee: 1,615.6 km
Apogee: 1,618.2 km
Inclination: 52.0 °
Period: 118.4 minutes
Semi major axis: 7987 km
RCS: 2.5697 m2 (large)
Launch date: October 18, 1999
Source: Globalstar (GLOB)
Launch site: TYURATAM MISSILE AND SPACE COMPLEX (TTMTR)
Your satellite tracking list
Your tracking list is empty




NASA's NSSDC Master Catalog

Two Line Element Set (TLE):
1 25946U 99058D   26156.45253404 -.00000062  00000-0  28685-3 0  9995
2 25946  51.9937 195.5301 0001634 185.2583 282.6372 12.16052386207522
Source of the keplerian elements: AFSPC